Weather History for Sisseton, SD

Change the Weather History Date:

Tuesday, November 20, 2012

  Actual Average Record
Temperature  
Mean Temperature 38 °F 28 °F  
Max Temperature 58 °F 38 °F 69 °F (1962)
Min Temperature 18 °F 19 °F -8 °F (1978)
Degree Days  
Heating Degree Days 27 37  
Month to date heating degree days 594 627  
Since 1 July heating degree days 1467 1454  
Cooling Degree Days 0 0  
Month to date cooling degree days 0 0  
Year to date cooling degree days 712 527  
Moisture  
Dew Point 26 °F    
Average Humidity 68    
Maximum Humidity 100    
Minimum Humidity 35    
Precipitation  
Precipitation 0.00 in 0.01 in 0.83 in (1953)
Month to date precipitation 0.27 0.48  
Year to date precipitation 16.77 21.84  
Snow  
Snow 0.00 in - - ()
Month to date snowfall T  
Since 1 July snowfall T  
Snow Depth 0.00 in    
Sea Level Pressure  
Sea Level Pressure 30.08 in    
Wind  
Wind Speed 9 mph (South)    
Max Wind Speed 17 mph    
Max Gust Speed 21 mph    
T = Trace of Precipitation, MM = Missing Value Source: NWS Daily Summary

Daily Weather History Graph

Daily Weather History Graph

Search for Another Location

Airport:

Trip Planner

Search our weather history database for the weather conditions in past years. The results will help you decide how hot, cold, wet, or windy it might be!

Date:

Astronomy

Nov. 20, 2012 Rise Set
Actual Time 7:35 AM CST 4:52 PM CST
Civil Twilight 7:02 AM CST 5:24 PM CST
Nautical Twilight 6:25 AM CST 6:01 PM CST
Astronomical Twilight 5:50 AM CST 6:36 PM CST
Moon 12:59 PM CST (11/20) No Moon Set
Length of Visible Light 10h 22m
Length of Day
9h 17m
First Quarter, 51% of the Moon is Illuminated
Nov 20
First Quarter
Nov 28
Full
Dec 6
Last Quarter
Dec 13
New
Dec 19
First Quarter

Hourly Weather History & Observations

Time (CST) Temp. Windchill Dew Point Humidity Pressure Visibility Wind Dir Wind Speed Gust Speed Precip Events Conditions
12:56 AM 23.0 °F 15.8 °F 21.9 °F 96% 30.20 in - NW 5.8 mph - N/A   Unknown
1:56 AM 24.1 °F - 23.0 °F 96% 30.18 in - Calm Calm - N/A   Unknown
2:56 AM 19.9 °F - 19.9 °F 100% 30.20 in - Calm Calm - N/A   Unknown
3:56 AM 21.0 °F 16.2 °F 19.0 °F 92% 30.19 in - SW 3.5 mph - N/A   Unknown
4:56 AM 21.0 °F 13.4 °F 19.0 °F 92% 30.19 in - SW 5.8 mph - N/A   Unknown
5:56 AM 19.9 °F 14.9 °F 18.0 °F 92% 30.21 in - South 3.5 mph - N/A   Unknown
6:56 AM 19.0 °F - 17.1 °F 92% 30.22 in - Calm Calm - N/A   Unknown
7:56 AM 26.1 °F 17.6 °F 24.1 °F 92% 30.20 in - South 8.1 mph - N/A   Unknown
8:56 AM 30.9 °F 21.7 °F 28.9 °F 92% 30.19 in - South 11.5 mph - N/A   Unknown
9:56 AM 37.9 °F 30.5 °F 32.0 °F 79% 30.17 in - South 11.5 mph - N/A   Unknown
10:56 AM 45.0 °F 38.5 °F 30.9 °F 58% 30.15 in - SSE 13.8 mph - N/A   Unknown
11:56 AM 50.0 °F - 30.9 °F 48% 30.11 in - SSE 12.7 mph - N/A   Unknown
12:56 PM 54.0 °F - 30.9 °F 41% 30.06 in - SSE 15.0 mph - N/A   Unknown
1:56 PM 55.0 °F - 30.9 °F 40% 30.02 in - SSE 16.1 mph - N/A   Unknown
2:56 PM 57.0 °F - 32.0 °F 39% 30.00 in - SSE 13.8 mph - N/A   Unknown
3:56 PM 55.0 °F - 30.9 °F 40% 29.98 in - SSE 12.7 mph - N/A   Unknown
4:56 PM 51.1 °F - 24.1 °F 35% 29.99 in - South 11.5 mph - N/A   Unknown
5:56 PM 48.0 °F - 24.1 °F 39% 30.00 in - SSW 9.2 mph - N/A   Unknown
6:56 PM 46.9 °F - 25.0 °F 42% 30.00 in - SSW 12.7 mph - N/A   Unknown
7:56 PM 46.0 °F 40.2 °F 27.0 °F 47% 29.98 in - SSW 12.7 mph - N/A   Unknown
8:56 PM 39.0 °F 34.8 °F 25.0 °F 57% 29.96 in - SE 5.8 mph - N/A   Unknown
9:56 PM 39.0 °F 33.4 °F 26.1 °F 60% 29.93 in - South 8.1 mph - N/A   Unknown
10:56 PM 37.9 °F 35.5 °F 28.0 °F 68% 29.92 in - Variable 3.5 mph - N/A   Unknown
11:56 PM 45.0 °F 40.6 °F 32.0 °F 60% 29.89 in - SW 8.1 mph - N/A   Unknown